Powrót do katalogu

STARLINK-37098

AktywnyŁącznośćVLEO
NORAD 68192·PAYLOAD·🇺🇸 United States

Wystrzelony Mar 14, 2026 z Vandenberg Space Force Base

Loading…

Następne Przeloty (najbliższe 24 godziny)

TLE

ŚwieżeSource: CelesTrak SupGP

Epoka: Sep 14, 2026, 22:26 UTC

1 68192C 26050AB  26257.93520833  .00022704  00000+0  67122-3 0  2576
2 68192  53.1569 103.7078 0001162  87.7445 285.3326 15.34359515    19

Śledź STARLINK-37098 w czasie rzeczywistym z AllMySat

Download on the App Store